loading
|
Showing default

LEMU-NGE, 60532

Orbit data source: Space-Track

LEMU-NGE, 60532 is a Chilean payload satellite in SSO that was launched on Fri, 16 Aug 2024 UTC via an FALCON 9 launch vehicle from the Air Force Western Test Range (AFWTR). Payloads include a variety of satellites, spacecraft, and rockets equipped with specific instruments for various scientific and technological missions. These include communications satellites like Starlink; space stations such as the ISS; scientific satellites like the Hubble; Earth observation satellites from companies like Planet Labs, Umbra, and HawkEye 360; GPS; miniature CubeSats for education and research; and military/defense satellites.

Loading next visibility...
Next conjunction unknown
Loading greatness...
LEMU-NGE details
Identifier
60532, 2024-149BS
Orbit
SSO
Last TLE update21 hours ago
Origin
Flag of CLLEMU (CL / CHL)
ManufacturerNanoAvionics
MissionOperational spacecraft
Bus & MotorCUBESAT 6U, Unknown motor
Mass~10 kg wet, ~10 kg dry
Launch date (UTC)
2024-08-16 (2 months ago)
Launch vehicle
FALCON 9
Launch site
Air Force Western Test Range (AFWTR)
Object type
Payload
Rocket body
Debris
Shape & HBRUnknown
Radar Cross SectionSmall (<0.1 m²)

Expand to show TLE details & history

TLE from 21 hours ago
0 LEMU-NGE
1 60532U 24149BS  24287.71895492  .00005681  00000-0  56221-3 0  9993
2 60532  97.7456   2.2049 0000579  88.3185 271.8100 14.92251863  8623
Epoch: 2024-10-13T17:15Z
Definitive object data (Epoch: 2024-10-13T17:15:17.705Z)
Latitude-0.00004°
Longitude80.62472°
Altitude593.946 km
Speed7.563 km/s
True Right ascension00h 08m 49s
True Declination0° 00' 00"
Sunlit
Object was in full shadow at TLE epoch
Predictive object data (real-time)
Latitude-12.59583°
Longitude83.21163°
Altitude596.467 km
Speed7.561 km/s
Apparent Right ascension22h 49m 21s
Apparent Declination-28° 07' 38"
Sunlit
Object is in full shadow
Predictive observer data (real-time)
Local Sidereal Time08:41:08
Azimuth284.153° WNW
Elevation-61.137°
Doppler factor1
Orbital elements
Apogee588.337 km
Perigee587.53 km
Semi-major axis6,966.07 km
Eccentricity0.0000579
Inclination97.7456°
RAAN2.2049°
Arg. of periapsis88.3185°
True anomaly271.80337°
Mean anomaly271.81°
Eccentric anomaly271.80668°
Mean motion3.73303 °/min
BSTAR0.00056221
Period96.44 mins
No data available

LEMU-NGE Visibility forecast

Observer location: 39.9160978°, -105.1181434

Span
Click to sort rows by Start time (UTC) header in descending order
Start Az.
Max El. time (UTC)
Max El. Az.
Max El.
End time (UTC)
End Az.
8 mins2024-10-14 17:57:09.411Z14.064° NNE2024-10-14 18:01:09.411Z116.616° SE44.764°2024-10-14 18:05:09.411Z190.823° SSW
6 mins2024-10-15 04:48:09.411Z140.014° SSE2024-10-15 04:50:09.411Z97.566° ESE36.028°2024-10-15 04:54:09.411Z0.803° NNE